Location: Roc des P�zouls
(43.9667°N, 3.5500°E)
Time: 16:46:29
(UTC+00:00)

Meteor 1-27 - Pass Details

Date: 14 November 2019
Orbit: 839 x 891 km, 81.3° (Epoch: 08 December)

Event Time Altitude Azimuth Distance (km) Brightness Sun altitude
Exits shadow 04:24:51 11° 345° (NNW) 2,491 6.5 -24.1°
Maximum altitude 04:30:27 69° 264° (W) 951 4.2 -23.1°
Drops below altitude 10° 04:36:14 10° 181° (S) 2,551 6.7 -22.1°
Sets 04:38:41 0° 179° (S) 3,484 7.5 -21.6°
